Tracking 19192 objects as of 21-Jun-2018
HD Live streaming from Space Station
objects crossing your sky now

FENGYUN 1C DEB

Track FENGYUN 1C DEB now!
10-day predictions


NORAD ID: 30840
Int'l Code: 1999-025AWA
Perigee: 557.7 km
Apogee: 937.8 km
Inclination: 98.3 °
Period: 99.6 minutes
Semi major axis: 7118 km
RCS: 0.0055 m2 (small)
Launch date: May 10, 1999
Source: People's Republic of China (PRC)
Launch site: Taiyaun Space Center, China (TSC)

Note: This is SATELLITE DEBRIS
aabbcc
Your satellite tracking list
Your tracking list is empty




NASA's NSSDC Master Catalog

Two Line Element Set (TLE):
1 30840U 99025AWA 18171.61328322 +.00000297 +00000-0 +64387-4 0  9995
2 30840 098.3301 232.2445 0267002 125.5072 237.1344 14.45431064335582
Source of the keplerian elements: AFSPC